Beckley, WV

7:44 PM EDT on April 29, 2017 (GMT -0400)
Raleigh County Memorial

Weather History for KBKW - April, 2013

Change the Weather History Date:

Thursday, April 4, 2013

  Actual Average Record
Temperature  
Mean Temperature 35 °F 48 °F  
Max Temperature 41 °F 59 °F 80 °F (2011)
Min Temperature 28 °F 38 °F 12 °F (1936)
Degree Days  
Heating Degree Days 30 17  
Month to date heating degree days 114 69  
Since 1 July heating degree days 4842 4782  
Cooling Degree Days 0 0  
Month to date cooling degree days 0 0  
Year to date cooling degree days 0 1  
Moisture  
Dew Point 20 °F    
Average Humidity 65    
Maximum Humidity 96    
Minimum Humidity 33    
Precipitation  
Precipitation 0.59 in 0.10 in 3.59 in (1977)
Month to date precipitation 0.68 0.42  
Year to date precipitation 9.02 9.56  
Snow  
Snow 0.00 in - - ()
Month to date snowfall 0.0  
Since 1 September snowfall 72.0  
Snow Depth 0.00 in    
Sea Level Pressure  
Sea Level Pressure 30.18 in    
Wind  
Wind Speed 8 mph (SE)    
Max Wind Speed 20 mph    
Max Gust Speed 28 mph    
Visibility 8 miles    
Events Rain    
T = Trace of Precipitation, MM = Missing Value Source: NWS Daily Summary

Daily Weather History Graph

Daily Weather History Graph

Search for Another Location

Airport or City:

Trip Planner

Search our weather history database for the weather conditions in past years. The results will help you decide how hot, cold, wet, or windy it might be!

Date:

Astronomy

Apr. 04, 2013 Rise Set
Actual Time 7:04 AM EDT 7:50 PM EDT
Civil Twilight 6:38 AM EDT 8:16 PM EDT
Nautical Twilight 6:07 AM EDT 8:48 PM EDT
Astronomical Twilight 5:34 AM EDT 9:20 PM EDT
Moon 3:24 AM EDT (4/4) 2:12 PM EDT (4/4)
Length of Visible Light 13h 38m
Length of Day
12h 45m
Waning Crescent, 34% of the Moon is Illuminated
Apr 4
Waning Crescent
Apr 10
New
Apr 18
First Quarter
Apr 25
Full
May 2
Last Quarter

Hourly Weather History & Observations

Time (EDT) Temp. Windchill Dew Point Humidity Pressure Visibility Wind Dir Wind Speed Gust Speed Precip Events Conditions
12:51 AM 28.9 °F - 12.9 °F 51% 30.35 in 10.0 mi Calm Calm - N/A   Clear
1:51 AM 30.9 °F 25.2 °F 10.9 °F 43% 30.32 in 10.0 mi ESE 5.8 mph - N/A   Clear
2:51 AM 32.0 °F 28.7 °F 10.0 °F 40% 30.29 in 10.0 mi East 3.5 mph - N/A   Clear
3:51 AM 32.0 °F 25.6 °F 10.9 °F 42% 30.27 in 10.0 mi East 6.9 mph - N/A   Clear
4:51 AM 33.1 °F 24.9 °F 10.0 °F 38% 30.25 in 10.0 mi SE 10.4 mph - N/A   Clear
5:51 AM 33.1 °F 27.7 °F 9.0 °F 37% 30.25 in 10.0 mi Variable 5.8 mph - N/A   Clear
6:51 AM 33.1 °F 25.5 °F 10.0 °F 38% 30.25 in 10.0 mi SE 9.2 mph 18.4 mph N/A   Clear
7:51 AM 33.1 °F 24.4 °F 10.9 °F 40% 30.27 in 10.0 mi SE 11.5 mph 19.6 mph N/A   Clear
8:51 AM 34.0 °F 24.2 °F 10.9 °F 38% 30.28 in 10.0 mi SE 15.0 mph 23.0 mph N/A   Clear
9:51 AM 36.0 °F 26.0 °F 12.0 °F 37% 30.25 in 10.0 mi SE 17.3 mph 26.5 mph N/A   Clear
10:51 AM 39.0 °F 30.3 °F 12.9 °F 34% 30.23 in 10.0 mi SE 16.1 mph 23.0 mph N/A   Clear
11:51 AM 39.9 °F 32.9 °F 14.0 °F 35% 30.22 in 10.0 mi SE 11.5 mph 21.9 mph N/A   Clear
12:51 PM 39.9 °F 32.5 °F 15.1 °F 36% 30.21 in 10.0 mi SSE 12.7 mph 20.7 mph N/A   Clear
1:51 PM 39.9 °F 32.5 °F 16.0 °F 38% 30.22 in 10.0 mi SSE 12.7 mph 20.7 mph N/A   Overcast
2:51 PM 39.0 °F 32.3 °F 17.1 °F 41% 30.18 in 10.0 mi SE 10.4 mph 20.7 mph N/A   Overcast
3:51 PM 35.1 °F 29.3 °F 27.0 °F 72% 30.17 in 10.0 mi Variable 6.9 mph - 0.00 in Rain Light Rain
4:51 PM 33.8 °F 26.4 °F 30.2 °F 87% 30.07 in 7.0 mi SSE 9.2 mph 21.9 mph N/A Rain Light Rain
5:51 PM 34.0 °F 26.0 °F 30.0 °F 85% 30.15 in 5.0 mi SSE 10.4 mph 18.4 mph 0.12 in Rain Rain
6:02 PM 33.8 °F 25.8 °F 30.2 °F 87% 30.08 in 7.0 mi SSE 10.4 mph 19.6 mph 0.01 in Rain Light Rain
6:22 PM 33.8 °F 25.3 °F 30.2 °F 87% 30.07 in 7.0 mi SE 11.5 mph 23.0 mph 0.03 in Rain Light Rain
6:51 PM 33.1 °F 27.7 °F 30.0 °F 89% 30.14 in 4.0 mi Variable 5.8 mph - 0.09 in Rain Rain
7:51 PM 34.0 °F 29.8 °F 30.9 °F 89% 30.11 in 7.0 mi ESE 4.6 mph - 0.11 in Rain Light Rain
8:51 PM 34.0 °F - 32.0 °F 92% 30.09 in 10.0 mi Calm Calm - 0.03 in Rain Light Rain
9:51 PM 34.0 °F 31.0 °F 32.0 °F 92% 30.08 in 7.0 mi Variable 3.5 mph - 0.02 in Rain Light Rain
10:37 PM 33.8 °F 29.6 °F 32.0 °F 93% 30.00 in 5.0 mi East 4.6 mph - 0.04 in Rain Light Rain
10:51 PM 34.0 °F 29.8 °F 32.0 °F 92% 30.05 in 4.0 mi ESE 4.6 mph - 0.06 in Rain Rain
11:29 PM 33.8 °F 28.6 °F 32.0 °F 93% 29.98 in 6.0 mi East 5.8 mph - 0.03 in Rain Light Rain
11:51 PM 35.1 °F - 34.0 °F 96% 30.01 in 4.0 mi Calm Calm - 0.04 in Rain Light Rain